Flag for Afghanistan Weather past 2 weeks in Ghazni, Afghanistan

Now
91 °F

Haze.


Feels Like: 99 °F
Forecast: 50 / 78 °F
Wind: 9 mph from Southeast

Location: Peshawar Airport

Current Time: Sep 4, 2015 at 1:07:56 PM

Latest Report: Sep 4, 2015 at 12:30 PM


Visibility: 2 mi

Pressure: 29.86 "Hg (23.40 "Hg at 2184m altitude)

Humidity: 52%

Dew point: 72 °F

Location of GhazniLocation

Historic Weather in Ghazni — Graph

°F

Ghazni temperature yesterday

Maximum temperature yesterday: 90 °F (at 3:30 PM)
Minimum temperature yesterday: 72 °F (at 1:30 AM)
Average temperature yesterday: 81 °F

Past Weeks' High & Low Weather Summary

 TemperatureHumidityPressure
High99 °F (Aug 20, 1:30 PM)94% (Aug 20, 10:30 PM)30.24 "Hg (Aug 20, 10:30 PM)
Low72 °F (Aug 28, 5:30 AM)41% (Aug 25, 4:30 PM)29.53 "Hg (Aug 20, 1:30 PM)
Average84 °F63%29.65 "Hg
* Reported Aug 20 11:30 AM — Sep 4 11:30 AM, Ghazni, Weather by CustomWeather, © 2015

Note: Actual official high and low records may vary slightly from our data, if they occured in-between our weather recording intervals... More about our weather records

Advertising

Ghazni weather history for previous 24 hours

 ConditionsComfort  
Time TempWeatherWind HumidityBarometerVisibility
11:30 AM
Fri, Sep 4
90 °FHaze.7 mph55%29.86 "Hg2 mi
10:30 AM88 °FSunny.7 mph55%29.89 "Hg2 mi
9:30 AM86 °FSunny.7 mph59%29.89 "Hg2 mi
8:30 AM82 °FHaze.5 mph62%29.89 "Hg2 mi
7:30 AM79 °FHaze.5 mph70%29.86 "Hg2 mi
6:30 AM75 °FHaze.No wind74%29.86 "Hg2 mi
5:30 AM73 °FHaze.No wind74%29.83 "Hg2 mi
4:29 AM73 °FHaze.No wind74%29.80 "Hg2 mi
3:30 AM75 °FThundershowers. Passing clouds.5 mph74%29.80 "Hg2 mi
2:30 AM77 °FHaze.5 mph74%29.80 "Hg2 mi
1:30 AM77 °FHaze.5 mph74%29.77 "Hg2 mi
12:30 AM77 °FHaze.5 mph74%29.80 "Hg2 mi
11:30 PM
Thu, Sep 3
79 °FHaze.5 mph70%29.80 "Hg2 mi
10:30 PM79 °FHaze.5 mph65%29.80 "Hg2 mi
9:30 PM81 °FHaze.5 mph62%29.77 "Hg2 mi
8:30 PM82 °FHaze.5 mph58%29.77 "Hg2 mi
7:30 PM84 °FHaze.5 mph55%29.77 "Hg2 mi
6:30 PM86 °FPassing clouds.7 mph52%29.74 "Hg2 mi
5:30 PM88 °FScattered clouds.7 mph52%29.74 "Hg2 mi
4:30 PM90 °FHaze.9 mph49%29.74 "Hg2 mi
3:30 PM90 °FHaze.5 mph49%29.74 "Hg2 mi
2:30 PM88 °FScattered clouds.7 mph55%29.74 "Hg2 mi
1:30 PM88 °FScattered clouds.12 mph55%29.77 "Hg2 mi
Weather by CustomWeather, © 2015

See weather overviewHow to use our weather pages